CW7693 Weather Reports


time (UTC)temp
C
wind
direction
speed
KPH
gust
KPH
rain 1hr
cm
rain 24hr
cm
rain mn
cm
humidity
%
barometer
mb
20191021204506 12 322 0.0 3.2 0.00 0.13 0.13 88 1021.2
20191021203009 13 306 1.6 3.2 0.00 0.13 0.13 87 1021.3
20191021200006 13 298 0.0 4.8 0.00 0.13 0.13 87 1021.1
20191021191508 12 355 1.6 6.4 0.00 0.13 0.13 90 1020.5
20191021184518 12 350 1.6 8.0 0.00 0.13 0.13 92 1020.3
20191021180008 13 34 0.0 1.6 0.00 0.13 0.13 91 1019.6
20191021170010 13 40 0.0 3.2 0.00 0.13 0.13 88 1019.4
20191021163004 14 40 1.6 4.8 0.00 0.13 0.13 86 1019.1
20191021161505 14 36 0.0 6.4 0.00 0.13 0.13 86 1018.9
20191021151512 15 287 1.6 6.4 0.00 0.13 0.13 83 1018.5
20191021141507 16 290 4.8 8.0 0.00 0.13 0.13 79 1018.7
20191021130013 15 343 4.8 14.5 0.00 0.13 0.13 86 1019.1
20191021113003 16 320 6.4 16.1 0.00 0.13 0.13 80 1018.4
20191021111504 15 350 8.0 19.3 0.00 0.13 0.13 81 1018.1
20191021103004 14 349 6.4 14.5 0.00 0.13 0.13 87 1017.7
20191021093013 13 306 1.6 4.8 0.00 0.13 0.13 90 1016.9
20191021081503 11 161 3.2 9.7 0.10 0.13 0.13 92 1016.6
20191021063020 9 150 0.0 4.8 0.00 0.03 0.00 92 1017.2
20191021061504 8 148 3.2 4.8 0.00 0.03 0.00 92 1016.7
20191021053006 9 146 0.0 1.6 0.00 0.03 0.00 92 1016.7
20191021051505 8 147 3.2 6.4 0.00 0.03 0.00 91 1016.4
20191021040004 8 154 3.2 9.7 0.00 0.03 0.00 93 1015.0
20191021031518 7 179 3.2 6.4 0.00 0.03 0.00 92 1013.9
20191021013004 8 146 0.0 4.8 0.00 0.03 0.00 90 1012.4
20191021010005 8 136 0.0 3.2 0.00 0.03 0.00 89 1011.8
20191020231510 10 148 0.0 3.2 0.00 0.03 0.00 88 1011.5
20191020230004 10 148 1.6 4.8 0.00 0.03 0.00 88 1011.6
20191020221513 10 28 1.6 8.0 0.00 0.03 0.00 87 1011.3
20191020213010 10 116 0.0 8.0 0.00 0.03 0.03 89 1010.9
20191020211514 10 219 1.6 3.2 0.00 0.03 0.03 88 1010.8